Saint James, MN

6:40 PM CDT on September 30, 2016 (GMT -0500)
Saint James Municipal

Weather History for KJYG - May, 2013

Change the Weather History Date:

Friday, May 31, 2013

  Actual Average Record
Temperature  
Mean Temperature 68 °F -  
Max Temperature 77 °F 75 °F 92 °F (1988)
Min Temperature 59 °F 52 °F 33 °F (2001)
Cooling Degree Days 3    
Growing Degree Days 18 (Base 50)    
Moisture  
Dew Point 51 °F    
Average Humidity 57    
Maximum Humidity 82    
Minimum Humidity 31    
Precipitation  
Precipitation 0.00 in - - ()
Sea Level Pressure  
Sea Level Pressure 29.55 in    
Wind  
Wind Speed 15 mph (SSW)    
Max Wind Speed 29 mph    
Max Gust Speed 38 mph    
Visibility 10 miles    
Events Rain    
Averages and records for this station are not official NWS values.
T = Trace of Precipitation, MM = Missing Value Source: NWS Daily Summary

Daily Weather History Graph

Daily Weather History Graph

Search for Another Location

Airport or City:

Trip Planner

Search our weather history database for the weather conditions in past years. The results will help you decide how hot, cold, wet, or windy it might be!

Date:

Astronomy

May. 31, 2013 Rise Set
Actual Time 5:38 AM CDT 8:53 PM CDT
Civil Twilight 5:03 AM CDT 9:28 PM CDT
Nautical Twilight 4:17 AM CDT 10:14 PM CDT
Astronomical Twilight 3:22 AM CDT 11:10 PM CDT
Moon 1:18 AM CDT (5/31) 1:05 PM CDT (5/31)
Length of Visible Light 16h 25m
Length of Day
15h 14m
Waning Gibbous, 51% of the Moon is Illuminated
May 31
Waning Gibbous
May 31
Last Quarter
Jun 8
New
Jun 16
First Quarter
Jun 23
Full

Hourly Weather History & Observations

Time (CDT) Temp. Dew Point Humidity Pressure Visibility Wind Dir Wind Speed Gust Speed Precip Events Conditions
12:15 AM 64.4 °F 57.2 °F 77% 29.58 in 7.0 mi SSW 24.2 mph 34.5 mph N/A Rain Light Rain
12:34 AM 62.6 °F 55.4 °F 77% 29.57 in 10.0 mi South 17.3 mph - N/A Rain Light Rain
12:55 AM 62.6 °F 55.4 °F 77% 29.58 in 10.0 mi SSW 4.6 mph 9.2 mph N/A Rain Light Rain
1:15 AM 62.6 °F 55.4 °F 77% 29.55 in 10.0 mi Calm Calm - N/A   Scattered Clouds
1:35 AM 60.8 °F 55.4 °F 82% 29.55 in 10.0 mi Calm Calm - N/A   Clear
1:55 AM 62.6 °F 57.2 °F 82% 29.53 in 10.0 mi Calm Calm - N/A   Clear
2:15 AM 60.8 °F 55.4 °F 82% 29.53 in 10.0 mi Calm Calm - N/A   Clear
2:35 AM 60.8 °F 55.4 °F 82% 29.52 in 10.0 mi SE 10.4 mph - N/A   Clear
2:55 AM 60.8 °F 53.6 °F 77% 29.53 in 10.0 mi SSE 9.2 mph - N/A   Clear
3:15 AM 60.8 °F 53.6 °F 77% 29.53 in 10.0 mi SSE 10.4 mph - N/A   Clear
3:35 AM 60.8 °F 53.6 °F 77% 29.53 in 10.0 mi SSE 11.5 mph - N/A   Clear
3:54 AM 62.6 °F 53.6 °F 72% 29.53 in 10.0 mi SSE 11.5 mph - N/A   Clear
4:15 AM 62.6 °F 53.6 °F 72% 29.53 in 10.0 mi South 13.8 mph 20.7 mph N/A   Clear
4:35 AM 62.6 °F 53.6 °F 72% 29.53 in 10.0 mi SSE 13.8 mph - N/A   Clear
4:54 AM 60.8 °F 53.6 °F 77% 29.53 in 10.0 mi South 12.7 mph - N/A   Clear
5:15 AM 60.8 °F 53.6 °F 77% 29.53 in 10.0 mi South 12.7 mph 18.4 mph N/A   Clear
5:35 AM 60.8 °F 53.6 °F 77% 29.53 in 10.0 mi South 11.5 mph - N/A   Clear
5:54 AM 59.0 °F 53.6 °F 82% 29.53 in 10.0 mi South 11.5 mph 17.3 mph N/A   Clear
6:15 AM 59.0 °F 53.6 °F 82% 29.53 in 10.0 mi SSE 12.7 mph - N/A   Clear
6:35 AM 60.8 °F 53.6 °F 77% 29.54 in 10.0 mi SSE 12.7 mph - N/A   Clear
6:55 AM 60.8 °F 53.6 °F 77% 29.54 in 10.0 mi SSE 11.5 mph - N/A   Clear
7:15 AM 60.8 °F 53.6 °F 77% 29.54 in 10.0 mi SSE 13.8 mph - N/A   Clear
7:35 AM 62.6 °F 53.6 °F 72% 29.54 in 10.0 mi South 11.5 mph 19.6 mph N/A   Clear
7:55 AM 62.6 °F 53.6 °F 72% 29.54 in 10.0 mi South 16.1 mph - N/A   Clear
8:15 AM 64.4 °F 53.6 °F 68% 29.55 in 10.0 mi South 17.3 mph 21.9 mph N/A   Clear
8:35 AM 64.4 °F 51.8 °F 64% 29.55 in 10.0 mi South 15.0 mph 25.3 mph N/A   Clear
8:55 AM 64.4 °F 51.8 °F 64% 29.56 in 10.0 mi SSW 15.0 mph 23.0 mph N/A   Clear
9:15 AM 66.2 °F 51.8 °F 60% 29.55 in 10.0 mi South 17.3 mph 24.2 mph N/A   Clear
9:34 AM 66.2 °F 51.8 °F 60% 29.55 in 10.0 mi South 18.4 mph 25.3 mph N/A   Clear
9:55 AM 66.2 °F 51.8 °F 60% 29.55 in 10.0 mi South 19.6 mph 26.5 mph N/A   Clear
10:15 AM 68.0 °F 51.8 °F 56% 29.55 in 10.0 mi South 16.1 mph 33.4 mph N/A   Clear
10:35 AM 68.0 °F 51.8 °F 56% 29.55 in 10.0 mi South 21.9 mph 27.6 mph N/A   Clear
10:55 AM 69.8 °F 51.8 °F 53% 29.55 in 10.0 mi South 15.0 mph 26.5 mph N/A   Clear
11:15 AM 69.8 °F 51.8 °F 53% 29.55 in 10.0 mi South 23.0 mph - N/A   Scattered Clouds
11:35 AM 69.8 °F 51.8 °F 53% 29.56 in 10.0 mi South 20.7 mph 31.1 mph N/A   Scattered Clouds
11:55 AM 69.8 °F 51.8 °F 53% 29.56 in 10.0 mi South 21.9 mph 27.6 mph N/A   Scattered Clouds
12:15 PM 71.6 °F 51.8 °F 50% 29.56 in 10.0 mi South 25.3 mph 33.4 mph N/A   Scattered Clouds
12:34 PM 71.6 °F 51.8 °F 50% 29.55 in 10.0 mi South 24.2 mph 32.2 mph N/A   Scattered Clouds
12:55 PM 73.4 °F 51.8 °F 47% 29.55 in 10.0 mi South 23.0 mph 32.2 mph N/A   Scattered Clouds
1:15 PM 73.4 °F 51.8 °F 47% 29.55 in 10.0 mi South 23.0 mph 28.8 mph N/A   Mostly Cloudy
1:35 PM 73.4 °F 50.0 °F 44% 29.55 in 10.0 mi South 23.0 mph 33.4 mph N/A   Mostly Cloudy
1:55 PM 73.4 °F 50.0 °F 44% 29.55 in 10.0 mi SSW 18.4 mph 29.9 mph N/A   Mostly Cloudy
2:15 PM 73.4 °F 48.2 °F 41% 29.54 in 10.0 mi South 25.3 mph 33.4 mph N/A   Scattered Clouds
2:35 PM 75.2 °F 48.2 °F 38% 29.54 in 10.0 mi SSW 20.7 mph 32.2 mph N/A   Mostly Cloudy
2:55 PM 75.2 °F 46.4 °F 36% 29.53 in 10.0 mi SSW 26.5 mph 34.5 mph N/A   Mostly Cloudy
3:14 PM 75.2 °F 46.4 °F 36% 29.53 in 10.0 mi South 25.3 mph 35.7 mph N/A   Scattered Clouds
3:35 PM 75.2 °F 46.4 °F 36% 29.54 in 10.0 mi SSW 20.7 mph 36.8 mph N/A   Scattered Clouds
3:55 PM 75.2 °F 44.6 °F 34% 29.53 in 10.0 mi SSW 28.8 mph 35.7 mph N/A   Scattered Clouds
4:15 PM 75.2 °F 44.6 °F 34% 29.53 in 10.0 mi SSW 23.0 mph 34.5 mph N/A   Scattered Clouds
4:35 PM 77.0 °F 44.6 °F 32% 29.53 in 10.0 mi SW 26.5 mph 38.0 mph N/A   Scattered Clouds
4:55 PM 75.2 °F 44.6 °F 34% 29.54 in 10.0 mi SSW 27.6 mph 32.2 mph N/A   Scattered Clouds
5:15 PM 75.2 °F 44.6 °F 34% 29.54 in 10.0 mi SSW 19.6 mph 31.1 mph N/A   Scattered Clouds
5:34 PM 75.2 °F 44.6 °F 34% 29.54 in 10.0 mi SSW 16.1 mph 38.0 mph N/A   Scattered Clouds
5:55 PM 75.2 °F 42.8 °F 31% 29.54 in 10.0 mi SSW 23.0 mph 33.4 mph N/A   Scattered Clouds
6:15 PM 73.4 °F 44.6 °F 36% 29.54 in 10.0 mi SW 23.0 mph 28.8 mph N/A   Scattered Clouds
6:35 PM 73.4 °F 44.6 °F 36% 29.54 in 10.0 mi SW 19.6 mph 26.5 mph N/A   Scattered Clouds
6:55 PM 73.4 °F 44.6 °F 36% 29.54 in 10.0 mi SW 16.1 mph 25.3 mph N/A   Scattered Clouds
7:15 PM 73.4 °F 44.6 °F 36% 29.55 in 10.0 mi SW 15.0 mph - N/A   Mostly Cloudy
7:34 PM 71.6 °F 44.6 °F 38% 29.55 in 10.0 mi SW 17.3 mph 26.5 mph N/A   Overcast
7:55 PM 71.6 °F 46.4 °F 41% 29.55 in 10.0 mi SW 13.8 mph - N/A   Overcast
8:15 PM 71.6 °F 46.4 °F 41% 29.55 in 10.0 mi SSW 13.8 mph - N/A   Overcast
8:35 PM 69.8 °F 46.4 °F 43% 29.55 in 10.0 mi SW 11.5 mph - N/A   Overcast
8:55 PM 69.8 °F 46.4 °F 43% 29.55 in 10.0 mi SW 12.7 mph 16.1 mph N/A   Overcast
9:15 PM 69.8 °F 48.2 °F 46% 29.55 in 10.0 mi SW 6.9 mph - N/A   Overcast
9:35 PM 66.2 °F 50.0 °F 56% 29.56 in 10.0 mi SW 3.5 mph - N/A   Overcast
9:55 PM 66.2 °F 50.0 °F 56% 29.56 in 10.0 mi SW 8.1 mph - N/A   Overcast
10:14 PM 66.2 °F 50.0 °F 56% 29.56 in 10.0 mi SW 13.8 mph 18.4 mph N/A   Overcast
10:35 PM 64.4 °F 48.2 °F 56% 29.58 in 10.0 mi SW 8.1 mph - N/A   Overcast
10:55 PM 64.4 °F 50.0 °F 59% 29.58 in 10.0 mi SW 11.5 mph - N/A   Scattered Clouds
11:14 PM 64.4 °F 50.0 °F 59% 29.59 in 10.0 mi SW 10.4 mph - N/A   Clear
11:35 PM 62.6 °F 50.0 °F 63% 29.60 in 10.0 mi Calm Calm - N/A   Clear
11:55 PM 62.6 °F 51.8 °F 68% 29.59 in 10.0 mi Calm Calm - N/A   Clear